Home   Weather   Sheffield   Past weeks
Flag for United Kingdom

Past Weather in Sheffield, England, United Kingdom — Yesterday and Last 2 Weeks

Now
79 °F

Warm.


Feels Like: 80 °F
Forecast: 79 / 64 °F
Wind: 3 mph from North

Location: Manchester Airport

Current Time: Jul 23, 2019 at 11:18:06 pm

Latest Report: Jul 23, 2019 at 10:20 pm


Visibility: N/A

Pressure: 29.89 "Hg

Humidity: 54%

Dew Point: 61 °F

Location of SheffieldLocation

Past Weather in Sheffield — Graph

°F

Sheffield Temperature Yesterday

Maximum temperature yesterday: 77 °F (at 3:50 pm)
Minimum temperature yesterday: 63 °F (at 12:20 am)
Average temperature yesterday: 70 °F

High & Low Weather Summary for the Past Weeks

 TemperatureHumidityPressure
High84 °F (Jul 23, 5:20 pm)100% (Jul 10, 12:50 am)30.27 "Hg (Jul 10, 12:50 am)
Low48 °F (Jul 15, 4:50 am)47% (Jul 16, 3:50 pm)29.56 "Hg (Jul 20, 5:20 am)
Average63 °F79%30.01 "Hg
* Reported Jul 8 9:20 pm — Jul 23 9:50 pm, Sheffield. Weather by CustomWeather, © 2019

Note: Actual official high and low records may vary slightly from our data, if they occured in-between our weather recording intervals... More about our weather records

Advertising

Sheffield Weather History for the Previous 24 Hours

Scroll right to see more
 ConditionsComfort  
Time TempWeatherWind HumidityBarometerVisibility
9:50 pm
Tue, Jul 23
81 °FWarm.6 mph51%29.89 "HgN/A
9:20 pm81 °FWarm.6 mph51%29.89 "HgN/A
8:50 pm81 °FWarm.3 mph54%29.89 "HgN/A
8:20 pm82 °FWarm.3 mph55%29.89 "HgN/A
7:50 pm84 °FWarm.6 mph48%29.89 "HgN/A
7:20 pm84 °FPassing clouds.6 mph51%29.92 "HgN/A
6:50 pm84 °FWarm.6 mph51%29.92 "HgN/A
6:20 pm84 °FWarm.6 mph51%29.92 "HgN/A
5:50 pm84 °FWarm.6 mph51%29.95 "HgN/A
5:20 pm84 °FWarm.7 mph51%29.95 "HgN/A
4:50 pm82 °FWarm.7 mph51%29.98 "HgN/A
4:20 pm82 °FWarm.5 mph51%29.98 "HgN/A
3:50 pm82 °FWarm.5 mph55%29.98 "HgN/A
3:20 pm81 °FWarm.6 mph54%30.01 "HgN/A
2:50 pm81 °FWarm.6 mph54%30.01 "HgN/A
2:20 pm79 °FWarm.6 mph58%30.01 "HgN/A
1:50 pm79 °FWarm.6 mph61%30.04 "HgN/A
1:20 pm77 °FWarm.7 mph61%30.04 "HgN/A
12:50 pm75 °FPassing clouds.6 mph69%30.07 "HgN/A
12:20 pm75 °FScattered clouds.7 mph65%30.07 "HgN/A
11:50 am75 °FPartly sunny.6 mph65%30.07 "HgN/A
11:20 am73 °FPartly sunny.7 mph69%30.07 "HgN/A
10:50 am72 °FPartly sunny.6 mph73%30.09 "HgN/A
10:20 am72 °FScattered clouds.7 mph73%30.09 "HgN/A
9:50 am70 °FPassing clouds.5 mph78%30.09 "HgN/A
9:20 am70 °FPassing clouds.5 mph78%30.09 "HgN/A
8:50 am68 °FMild.5 mph78%30.09 "HgN/A
8:20 am66 °FMild.6 mph83%30.09 "HgN/A
7:50 am64 °FMild.3 mph88%30.09 "HgN/A
7:20 am64 °FMild.5 mph83%30.09 "HgN/A
6:50 am63 °FMild.3 mph88%30.09 "HgN/A
6:20 am61 °FCool.2 mph94%30.09 "HgN/A
5:50 am61 °FCool.3 mph88%30.09 "HgN/A
5:20 am59 °FPassing clouds.3 mph94%30.09 "HgN/A
4:50 am59 °FPassing clouds.2 mph94%30.12 "HgN/A
4:20 am59 °FPassing clouds.2 mph94%30.12 "HgN/A
3:50 am61 °FPassing clouds.3 mph88%30.12 "HgN/A
3:20 am61 °FPassing clouds.3 mph88%30.12 "HgN/A
2:50 am61 °FPassing clouds.3 mph88%30.12 "HgN/A
2:20 am63 °FPassing clouds.2 mph83%30.12 "HgN/A
1:50 am63 °FMild.5 mph88%30.12 "HgN/A
1:20 am64 °FPassing clouds.6 mph83%30.12 "HgN/A
12:50 am64 °FPassing clouds.6 mph83%30.12 "HgN/A
12:20 am66 °FPassing clouds.5 mph78%30.12 "HgN/A
11:50 pm
Mon, Jul 22
66 °FOvercast.3 mph83%30.12 "HgN/A
11:20 pm66 °FPassing clouds.7 mph83%30.12 "HgN/A
Weather by CustomWeather, © 2019

See weather overview